Regional Weather Roundup
Issued by NWS

Home | Current Version | Previous Version | Graphics & Text | Print | Product List | Glossary On
Versions: 1 2 3 4 5 6 7 8 9 10 11 12 13 14 15 16 17 18 19 20 21 22 23 24 25 26 27 28 29 30 31 32 33 34 35 36 37 38 39 40 41 42 43 44 45 46 47 48 49 50
000
ASUS43 KMKX 071800
RWRWI

WISCONSIN REGIONAL WEATHER ROUNDUP
NATIONAL WEATHER SERVICE MILWAUKEE/SULLIVAN WI
100 PM CDT TUE JUL 07 2015

NOTE: "FAIR" INDICATES FEW OR NO CLOUDS BELOW 12,000 FEET WITH NO
SIGNIFICANT WEATHER AND/OR OBSTRUCTIONS TO VISIBILITY.

WIZ001-002-006>008-014>016-023>028-071900-
NORTHWEST WISCONSIN

CITY           SKY/WX    TMP DP  RH WIND       PRES   REMARKS
SUPERIOR ARPT  SUNNY     66  48  51 CALM      30.14F
ASHLAND        SUNNY     66  47  50 NE9       30.14F
6HR MIN TEMP:  54; 6HR MAX TEMP:  66;

HAYWARD        MOSUNNY   65  44  46 N9        30.14F
6HR MIN TEMP:  54; 6HR MAX TEMP:  65;

SIREN          MOSUNNY   65  43  44 E6        30.15F
CUMBERLAND     PTSUNNY   63  45  51 NE9       30.15F
RICE LAKE      MOSUNNY   66  47  51 N9G16     30.16S
CHETEK         PTSUNNY   65  49  56 NW10G21   30.14F
LADYSMITH      MOSUNNY   64  47  54 N9        30.15S
EAU CLAIRE     PTSUNNY   67  48  50 N10       30.12F
6HR MIN TEMP:  52; 6HR MAX TEMP:  68;

MENOMONIE      PTSUNNY   66  46  47 N9        30.14S
NEW RICHMOND   CLOUDY    64  47  52 NE9       30.16S
OSCEOLA        PTSUNNY   64  47  53 N10       30.18F
$$

WIZ003>005-009-010-017-018-071900-
NORTH CENTRAL WISCONSIN

CITY           SKY/WX    TMP DP  RH WIND       PRES   REMARKS
MANITOWISH WTR PTSUNNY   59  45  59 N9        30.12S
ARBOR VITAE    PTSUNNY   62  46  56 NW12      30.11S
WOODRUFF       PTSUNNY   62  46  56 NW12      30.11S
RHINELANDER    CLOUDY    61  44  53 N7        30.11S
6HR MIN TEMP:  51; 6HR MAX TEMP:  63;

EAGLE RIVER    CLOUDY    61  43  51 N9G20     30.10S
LAND O LAKES   MOSUNNY   62  43  51 N10G21    30.12R
PHILLIPS       MOSUNNY   64  46  53 N7G17     30.12R
6HR MIN TEMP:  47; 6HR MAX TEMP:  64;

TOMAHAWK       PTSUNNY   62  46  56 N8        30.12R
MEDFORD        PTSUNNY   63  46  54 N8G16     30.12S
MERRILL        PTSUNNY   65  48  55 NE7G16    30.11S
$$

WIZ029-030-035-036-043>047-071900-
CENTRAL WISCONSIN

CITY           SKY/WX    TMP DP  RH WIND       PRES   REMARKS
WAUSAU         PTSUNNY   67  45  45 N10G17    30.08S
6HR MIN TEMP:  54; 6HR MAX TEMP:  67;

MOSINEE        CLOUDY    63  46  55 N10       30.11S
MARSHFIELD     CLOUDY    65  45  48 N8        30.11S
6HR MIN TEMP:  54; 6HR MAX TEMP:  65;

STEVENS POINT  PTSUNNY   61  44  53 N13       30.10S
WAUPACA        CLOUDY    67  48  49 N10       30.08S
WAUTOMA        NOT AVBL
WISC RAPIDS    CLOUDY    64  43  46 N10       30.11S
6HR MIN TEMP:  55; 6HR MAX TEMP:  65;

CAMP DOUGLAS   NOT AVBL
$$

WIZ011>013-019>022-031-037>040-048>050-071900-
NORTHEAST WISCONSIN

CITY           SKY/WX    TMP DP  RH WIND       PRES   REMARKS
ANTIGO         CLOUDY    61  48  62 N13       30.09S
SHAWANO        CLOUDY    67  47  47 NW8G17    30.06F
OCONTO         CLOUDY    65  48  54 N10G17    30.05R
STURGEON BAY   CLOUDY    63  48  59 N14       30.07S
6HR MIN TEMP:  55; 6HR MAX TEMP:  63;

GREEN BAY      PTSUNNY   67  48  50 NW14      30.06S
6HR MIN TEMP:  58; 6HR MAX TEMP:  69;

MANITOWOC      NOT AVBL
APPLETON       PTSUNNY   64  45  48 NW12G18   30.07R
CLINTONVILLE   MOSUNNY   68  43  40 N14       30.06F
OSHKOSH        PTSUNNY   67  48  50 NW13G22   30.06R
6HR MIN TEMP:  60; 6HR MAX TEMP:  67;

$$

WIZ032>034-041-042-053>061-071900-
SOUTHWEST WISCONSIN

CITY           SKY/WX    TMP DP  RH WIND       PRES   REMARKS
LA CROSSE      CLOUDY    65  45  48 N13G21    30.12S
6HR MIN TEMP:  58; 6HR MAX TEMP:  67;

SPARTA         CLOUDY    63  44  49 N10       30.12S
VIROQUA        CLOUDY    62  47  58 N9        30.12S
BOSCOBEL       CLOUDY    68  49  50 N9        30.09S
6HR MIN TEMP:  59; 6HR MAX TEMP:  70;

PRAIRIE DU CHI CLOUDY    66  46  48 N7G21     30.09S
PLATTEVILLE    PTSUNNY   66  54  65 N12G17    30.07F
$$

WIZ056-057-062-063-064-067-068-071900-
SOUTH CENTRAL WISCONSIN

CITY           SKY/WX    TMP DP  RH WIND       PRES   REMARKS
REEDSBURG      NOT AVBL
BARABOO/DELLS  CLOUDY    64  47  53 N8        30.08S
LONE ROCK      NOT AVBL
MINERAL POINT  PTSUNNY   68  52  56 N10G22    30.08S
MADISON        PTSUNNY   66  53  63 N9        30.05S
6HR MIN TEMP:  59; 6HR MAX TEMP:  68;

MIDDLETON      NOT AVBL
WATERTOWN      CLOUDY    65  53  64 N9G16     30.05R
MONROE         PTSUNNY   68  54  60 N10G16    30.05S
JANESVILLE     PTSUNNY   66  54  63 N15       30.04  HAZE
$$

WIZ051-052-058>065-066-070>072-071900-
SOUTHEAST WISCONSIN

CITY           SKY/WX    TMP DP  RH WIND       PRES   REMARKS
MILWAUKEE      PTSUNNY   65  49  56 N15G24    30.03S
6HR MIN TEMP:  58; 6HR MAX TEMP:  67;

WAUKESHA       PTSUNNY   64  48  55 N10G17    30.05S
MILWAUKEE/TIMM CLOUDY    64  48  55 NE8       30.04S
RACINE         SUNNY     66  50  56 N16G25    30.05S
6HR MIN TEMP:  57; 6HR MAX TEMP:  66;

BURLINGTON     NOT AVBL
KENOSHA        MOSUNNY   65  49  56 NE14G20   30.03S
6HR MIN TEMP:  57; 6HR MAX TEMP:  68;

FOND DU LAC    CLOUDY    66  48  52 N12       30.06S
6HR MIN TEMP:  60; 6HR MAX TEMP:  67;

SHEBOYGAN      CLOUDY    64  49  57 NE14      30.04S
6HR MIN TEMP:  58; 6HR MAX TEMP:  66;

WEST BEND      CLOUDY    64  46  52 N12G17    30.04S
JUNEAU         CLOUDY    64  51  62 N9        30.07R
$$

LSZ147-162-071900-
LAKE SUPERIOR

STATION/POSITION TIME  TEMP    WIND        PRES    WAVE
                       AIR SEA DIR/SP/G            HT/PER
                 (UTC) (F)     (DEG/KT/KT) (MB)    (FT/S)
W MID LAKE BUOY  1650   47 39  260/ 10/ 10 1019.9F   1
DEVILS ISLAND    1700   60     240/  5/  7 1020.6F
PORT WING        1700   61     290/  3/  4 1021.0
SAXON HARBOR     1740   61        CALM     1020.7R
$$

LMZ867-665-643>646-071900-
LAKE MICHIGAN

STATION/POSITION TIME  TEMP    WIND        PRES    WAVE
                       AIR SEA DIR/SP/G            HT/PER
                 (UTC) (F)     (DEG/KT/KT) (MB)    (FT/S)
CHAMBERS ISLAND  1700   61     320/ 10/ 14 1017.3R
N MID LAKE BUOY  1650   55 52  310/ 12/ 14 1016.3R   2/ 4
NORTHPORT PIER   1700   59     350/ 19/ 22 1016.9R
SISTER BAY       1614   61     340/ 18/ 21   N/A
ALGOMA LAKESHORE 1626          360/ 15/ 22   N/A
KEWAUNEE LAKESHO 1700   61     350/ 12/ 18 1016.7R
SHEBOYGAN LAKESH 1700   58      20/ 10/ 11 1017.5R
PORT WASHINGTON  1700   62      40/ 10/ 14 1017.6
ATWATER BUOY     1700   60 59   30/ 14/ 17 1018.2R
MILWAUKEE LAKESH 1700   59      30/ 12/ 14   N/A
KENOSHA   LAKESH 1700   59      20/ 17/ 22 1016.6R
$$

TC  - TEMPERATURE IN CELSIUS
VSB - VISIBILITY IN STATUTE MILES
WCI - WIND CHILL INDEX
HX  - HEAT INDEX




USA.gov is the U.S. government's official web portal to all federal, state and local government web resources and services.